Cloud_Cover
100 100 100 90 4 0 0 0 0 0 0 0 0 0 0 0 0 0 0 0 0 0 0 0 0 0 0 0 0 0 0 0 0 0 0 0 0 57 73 100 99 95 81 2
100 100 100 100 1 0 0 0 0 0 0 0 0 0 0 0 0 0 0 0 0 0 0 0 0 0 0 0 0 0 0 0 0 0 0 0 0 51 100 80 100 100 100 100
99 97 100 100 51 0 0 0 0 0 0 0 0 0 0 0 0 0 0 0 0 0 0 0 0 0 0 0 0 0 0 0 0 0 0 0 0 0 13 37 37 92 100 100
99 53 100 100 99 14 0 0 0 0 0 0 0 0 0 0 0 0 0 0 0 0 0 0 0 0 0 0 0 0 0 0 0 0 0 0 0 0 0 0 0 55 99 99
100 78 100 100 100 22 5 0 0 0 0 0 0 1 0 0 0 0 0 0 0 0 0 0 0 0 0 0 0 0 0 0 0 0 0 0 0 0 0 0 0 0 12 3
99 54 79 100 97 81 5 5 0 0 0 2 0 0 5 3 0 0 0 0 0 0 0 0 0 0 0 0 0 0 0 0 0 0 0 0 0 0 0 0 0 0 0 0
64 5 5 9 30 28 5 0 42 2 4 12 5 2 2 1 0 0 0 0 0 0 0 0 0 0 0 0 0 0 0 0 0 0 0 0 0 0 0 0 0 0 0 0
78 5 4 1 2 4 1 0 11 5 5 5 5 4 3 0 0 0 0 0 0 0 0 0 0 0 0 0 0 0 0 0 0 0 0 0 0 0 0 0 0 0 0 0
0 3 0 0 0 0 0 0 2 5 5 5 2 0 0 0 0 0 0 0 0 0 0 0 0 0 0 0 0 0 0 0 0 0 0 0 0 0 0 0 0 0 0 0
0 2 0 0 0 0 0 0 2 1 5 5 2 0 0 0 0 0 0 0 0 0 0 0 0 0 0 0 0 0 0 0 0 0 0 0 0 0 0 5 37 47 35 0
0 0 2 2 0 1 0 0 0 1 0 5 3 0 0 0 3 0 0 0 0 0 0 0 0 0 0 0 0 0 1 0 2 0 5 7 86 90 70 92 100 100 81 7
3 2 7 5 7 23 5 3 2 5 5 0 0 1 0 0 0 0 0 0 1 18 5 3 3 5 5 5 4 1 7 38 55 95 36 94 96 100 98 6 66 100 16 5
0 0 0 0 1 0 0 0 0 0 3 1 1 1 0 0 0 0 0 0 0 0 0 3 0 0 0 4 5 3 5 5 5 5 8 42 81 100 100 100 100 100 100 100
2 1 2 2 2 2 0 0 0 0 5 2 0 0 0 0 0 0 0 0 0 0 2 4 4 4 0 4 11 18 60 67 75 83 70 94 100 100 100 100 100 100 100 100
5 5 9 32 7 5 5 5 32 12 5 8 5 5 28 37 5 5 5 5 4 4 2 4 4 4 3 10 100 100 20 6 63 97 70 66 100 100 100 99 98 100 100 100
5 49 5 5 5 6 5 5 5 5 5 6 43 60 91 100 100 100 100 75 13 6 29 62 87 95 84 95 100 100 50 30 26 94 100 89 57 99 100 100 100 100 100 100
58 24 8 14 5 14 17 13 6 5 5 5 5 5 52 64 39 31 100 100 100 100 100 95 14 8 32 16 5 27 69 99 40 57 63 88 100 99 99 89 100 98 100 100
100 96 88 100 88 100 95 99 94 37 64 5 5 5 5 21 49 44 47 27 76 100 91 100 100 97 27 5 5 5 53 46 89 99 100 91 72 95 100 100 100 100 100 93
88 100 100 100 100 100 100 100 96 100 100 100 60 40 5 11 9 5 5 5 5 5 14 39 5 12 33 40 46 51 74 86 100 100 100 100 100 100 100 100 100 100 100 100
82 5 19 100 100 100 100 100 79 87 100 45 6 5 5 6 17 42 88 93 8 5 5 5 5 12 9 33 85 97 100 100 100 100 100 100 100 100 100 100 100 100 100 100
36 53 33 79 60 100 100 72 30 100 100 100 100 100 79 68 34 99 100 100 74 72 84 34 35 65 99 98 100 100 100 100 100 100 100 100 100 100 100 100 100 100 100 100
5 60 88 91 100 100 98 96 100 66 98 100 100 62 87 99 100 100 100 100 100 100 100 94 98 100 100 100 100 100 100 100 100 100 100 100 100 100 100 100 98 100 100 100
58 83 80 100 100 100 96 100 35 91 100 100 100 99 77 85 100 100 100 100 100 100 100 100 100 100 100 100 100 100 100 100 100 100 100 100 100 100 100 100 100 100 100 100
100 100 100 100 100 100 100 100 100 100 100 100 100 100 100 100 100 100 100 100 100 100 100 100 100 100 100 100 100 100 100 100 100 100 100 100 100 93 37 67 100 100 100 100
100 100 100 100 100 100 100 100 100 100 100 100 100 100 99 80 99 86 100 100 100 100 100 100 100 100 100 99 100 100 100 100 100 85 19 1 2 4 5 71 100 100 100 100
100 100 100 57 100 100 94 92 99 100 100 100 100 100 100 100 100 96 100 94 94 100 100 100 100 100 100 100 100 100 100 100 34 5 5 5 5 45 100 100 100 100 100 100